SCELSCCF

Guest
Details From SCEL - Arturo Merino Benitez Intl
To SCCF - EL LOA
Flight Number -
Tags decoded
Created
Modified
Stats Distance 710 nm / 1,315 km
Max Altitude 0 ft / 0 m
Waypoints 7
Social Downloads 0
Likes 0
Share VATSIM

Download

Looking for another format? Having issues loading an existing format? Contact us
Advertisement - Login to hide

Notes

Requested: SCEL DESIT ELBOS VTN TOY BARCA SCCF

Route

SCEL DESIT ELBOS VTN TOY BARCA SCCF

ID Type Via Altitude Latitude Longitude Leg Dist Tot Dist Heading (true) Name
O SCEL APT - 0 ft / 0 m -33.38978˚ -70.79437˚ - 0 nm - Arturo Merino Benitez Intl
DESIT FIX - 0 ft / 0 m -33.53663˚ -70.77951˚ 8 nm 8 nm 175° / 175° -
ELBOS FIX - 0 ft / 0 m -33.47500˚ -71.12278˚ 17 nm 26 nm 282° / 282° -
VTN VOR - 0 ft / 0 m -32.73861˚ -71.49611˚ 48 nm 74 nm 337° / 337° VENTANAS VOR-DME
TOY NDB - 0 ft / 0 m -30.26306˚ -71.47972˚ 148 nm 223 nm 0° / 0° TONGOY NDB
BARCA FIX - 0 ft / 0 m -29.81667˚ -71.43222˚ 26 nm 250 nm 5° / 5° -
O SCCF APT - 0 ft / 0 m -22.49818˚ -68.90358˚ 460 nm 710 nm 18° / 17° EL LOA

Altitude Profile

Advertisement - Login to hide

Weather


0- 5 10 15 20 25 30 35+ Temperature / ° C

Clouds and Precipitation
Forecast for 2017-12-17 12:00 UTC. Updated an hour ago

Ground ~20,000 ft ~40,000 ft Winds

SCEL

Details ICAO SCEL (SCL)
Name Arturo Merino Benitez Intl
Region Chile
Timezone America/Santiago (UTC-3.0)
Stats Elevation 1,550 ft / 472 m (AMSL)
Location -33.389775° -70.794366°
Runways 2
Magnetic Variation 1.801° E

METAR

SCEL 171200Z VRB02KT CAVOK 19/10 Q1014 NOSIG

Decode

TAF

TAF SCEL 171004Z 1712/1812 18004KT CAVOK TX32/1719Z TN13/1810Z TEMPO 1712/1714 VRB02KT 7000 NSC BECMG 1714/1716 19004KT BECMG 1717/1719 20012KT BECMG 1801/1803 18004KT TEMPO 1806/1812 VRB02KT 7000 NSC

Decode

Departure Runways

ID Width Length Bearing (true) Bearing (mag) Surface Threshold Offset Overrun Length
17L 180 ft / 55 m 10,523 ft / 3,207 m 177.43° 175.63° Asphalt 0 ft / 0 m 0 ft / 0 m
17R 148 ft / 45 m 12,504 ft / 3,811 m 177.44° 175.64° Asphalt 0 ft / 0 m 0 ft / 0 m
35L 148 ft / 45 m 12,504 ft / 3,811 m 357.44° 355.64° Asphalt 0 ft / 0 m 0 ft / 0 m
35R 180 ft / 55 m 10,523 ft / 3,207 m 357.43° 355.63° Asphalt 1,800 ft / 549 m 0 ft / 0 m

SCCF

Details ICAO SCCF (CJC)
Name EL LOA
Region Chile
Timezone America/Santiago (UTC-3.0)
Stats Elevation 7,543 ft / 2,299 m (AMSL)
Location -22.498175° -68.903575°
Runways 1
Magnetic Variation 5.265° W

METAR

SCCF 171200Z 10008KT CAVOK 14/M04 Q1024

Decode

TAF

TAF SCCF 171035Z 1712/1812 11015KT CAVOK TX25/1718Z TN08/1806Z BECMG 1716/1718 27023KT BECMG 1801/1803 26012KT BECMG 1804/1806 11012KT

Decode

Destination Runways

ID Width Length Bearing (true) Bearing (mag) Surface Threshold Offset Overrun Length
10 98 ft / 30 m 9,455 ft / 2,882 m 93.61° 98.88° Asphalt 0 ft / 0 m 100 ft / 30 m
28 98 ft / 30 m 9,455 ft / 2,882 m 273.60° 278.87° Asphalt 0 ft / 0 m 100 ft / 30 m

Popular Alternatives